When you browse on this site, cookies collect data to enhance your experience and personalize the content and advertising you see.
Visit our Privacy Policy to learn more. By continuing to use the site, you agree to this use of cookies and data.
  • en France
  • Liste des pays
  • À 7 jours
  • Température de l'eau
  • Carte météo
  • Widgets météo
  • user-avatar
    Se connecter

    Météo par heure à Albany

    Ce jour, 20 Novembre, Mercredi

    Heure Température Précipitation Vent Pression Humidité
    00:00 +10°C° 0 mm 5 m/s 751 mmHg 88%
    01:00 +10°C° 0 mm 6 m/s 750 mmHg 88%
    02:00 +10°C° 0 mm 6 m/s 750 mmHg 87%
    03:00 +11°C° 0.4 mm 7 m/s 750 mmHg 86%
    04:00 +11°C° 0.4 mm 7 m/s 751 mmHg 84%
    05:00 +11°C° 0.4 mm 8 m/s 751 mmHg 83%
    06:00 +12°C° 0.3 mm 8 m/s 752 mmHg 76%
    07:00 +12°C° 0.3 mm 9 m/s 752 mmHg 69%
    08:00 +13°C° 0.3 mm 10 m/s 753 mmHg 62%
    09:00 +14°C° 0.3 mm 10 m/s 753 mmHg 58%
    10:00 +14°C° 0.3 mm 11 m/s 754 mmHg 54%
    11:00 +16°C° 0.3 mm 11 m/s 754 mmHg 50%
    12:00 +16°C° 0.1 mm 11 m/s 755 mmHg 51%
    13:00 +16°C° 0.1 mm 10 m/s 755 mmHg 51%
    14:00 +17°C° 0.1 mm 10 m/s 755 mmHg 52%
    15:00 +16°C° 0.1 mm 9 m/s 756 mmHg 55%
    16:00 +15°C° 0.1 mm 8 m/s 757 mmHg 58%
    17:00 +15°C° 0.1 mm 7 m/s 757 mmHg 61%
    18:00 +13°C° 0 mm 6 m/s 758 mmHg 64%
    19:00 +12°C° 0 mm 5 m/s 758 mmHg 67%
    20:00 +11°C° 0 mm 4 m/s 759 mmHg 71%
    21:00 +11°C° 0 mm 4 m/s 759 mmHg 71%
    22:00 +10°C° 0 mm 4 m/s 759 mmHg 72%
    23:00 +10°C° 0 mm 3 m/s 760 mmHg 72%

    Demain, 21 Novembre, Jeudi

    Heure Température Précipitation Vent Pression Humidité
    00:00 +10°C° 0 mm 3 m/s 759 mmHg 73%
    01:00 +10°C° 0 mm 3 m/s 759 mmHg 74%
    02:00 +9°C° 0 mm 3 m/s 759 mmHg 75%
    03:00 +8°C° 0 mm 4 m/s 759 mmHg 78%
    04:00 +7°C° 0 mm 4 m/s 759 mmHg 82%
    05:00 +7°C° 0 mm 4 m/s 759 mmHg 85%
    06:00 +10°C° 0 mm 4 m/s 759 mmHg 76%
    07:00 +13°C° 0 mm 5 m/s 759 mmHg 67%
    08:00 +15°C° 0 mm 5 m/s 760 mmHg 58%
    09:00 +16°C° 0 mm 5 m/s 760 mmHg 54%
    10:00 +17°C° 0 mm 5 m/s 760 mmHg 51%
    11:00 +20°C° 0 mm 5 m/s 760 mmHg 47%
    12:00 +20°C° 0 mm 6 m/s 759 mmHg 46%
    13:00 +21°C° 0 mm 6 m/s 758 mmHg 45%
    14:00 +22°C° 0 mm 7 m/s 758 mmHg 45%
    15:00 +21°C° 0 mm 7 m/s 758 mmHg 49%
    16:00 +20°C° 0 mm 8 m/s 758 mmHg 54%
    17:00 +18°C° 0 mm 8 m/s 758 mmHg 58%
    18:00 +17°C° 0 mm 8 m/s 758 mmHg 63%
    19:00 +16°C° 0 mm 7 m/s 759 mmHg 67%
    20:00 +15°C° 0 mm 7 m/s 759 mmHg 71%
    21:00 +14°C° 0 mm 6 m/s 759 mmHg 73%
    22:00 +14°C° 0 mm 5 m/s 760 mmHg 74%
    23:00 +14°C° 0 mm 4 m/s 760 mmHg 76%

    Après-demain, 22 Novembre, Vendredi

    Heure Température Précipitation Vent Pression Humidité
    00:00 +13°C° 0 mm 4 m/s 760 mmHg 79%
    01:00 +13°C° 0 mm 4 m/s 759 mmHg 81%
    02:00 +13°C° 0 mm 3 m/s 759 mmHg 84%
    03:00 +12°C° 0 mm 3 m/s 759 mmHg 85%
    04:00 +12°C° 0 mm 3 m/s 759 mmHg 87%
    05:00 +13°C° 0 mm 2 m/s 759 mmHg 88%
    06:00 +14°C° 0.1 mm 3 m/s 760 mmHg 82%
    07:00 +16°C° 0.1 mm 3 m/s 760 mmHg 75%
    08:00 +18°C° 0.1 mm 3 m/s 761 mmHg 69%
    09:00 +19°C° 0.3 mm 3 m/s 761 mmHg 69%
    10:00 +20°C° 0.3 mm 4 m/s 761 mmHg 68%
    11:00 +20°C° 0.3 mm 4 m/s 761 mmHg 68%
    12:00 +20°C° 0.2 mm 4 m/s 761 mmHg 68%
    13:00 +20°C° 0.2 mm 4 m/s 761 mmHg 68%
    14:00 +20°C° 0.2 mm 5 m/s 761 mmHg 69%
    15:00 +19°C° 0 mm 5 m/s 761 mmHg 68%
    16:00 +17°C° 0 mm 5 m/s 761 mmHg 68%
    17:00 +17°C° 0 mm 5 m/s 761 mmHg 68%
    18:00 +15°C° 0 mm 4 m/s 761 mmHg 73%
    19:00 +14°C° 0 mm 3 m/s 762 mmHg 77%
    20:00 +12°C° 0 mm 3 m/s 762 mmHg 82%
    21:00 +12°C° 0 mm 3 m/s 762 mmHg 82%
    22:00 +12°C° 0 mm 2 m/s 762 mmHg 83%
    23:00 +12°C° 0 mm 2 m/s 763 mmHg 84%

    23 Novembre, Samedi

    Heure Température Précipitation Vent Pression Humidité
    00:00 +10°C° 0 mm 2 m/s 762 mmHg 84%
    01:00 +10°C° 0 mm 2 m/s 762 mmHg 84%
    02:00 +10°C° 0 mm 2 m/s 762 mmHg 85%
    03:00 +10°C° 0 mm 2 m/s 762 mmHg 86%
    04:00 +9°C° 0 mm 2 m/s 762 mmHg 87%
    05:00 +9°C° 0 mm 2 m/s 762 mmHg 89%
    06:00 +12°C° 0 mm 2 m/s 762 mmHg 79%
    07:00 +14°C° 0 mm 2 m/s 762 mmHg 70%
    08:00 +17°C° 0 mm 3 m/s 762 mmHg 61%
    09:00 +19°C° 0 mm 2 m/s 762 mmHg 54%
    10:00 +21°C° 0 mm 2 m/s 761 mmHg 47%
    11:00 +25°C° 0 mm 2 m/s 761 mmHg 40%
    12:00 +24°C° 0 mm 3 m/s 760 mmHg 43%
    13:00 +22°C° 0 mm 4 m/s 760 mmHg 47%
    14:00 +21°C° 0 mm 5 m/s 759 mmHg 50%
    15:00 +20°C° 0 mm 4 m/s 759 mmHg 54%
    16:00 +19°C° 0 mm 4 m/s 759 mmHg 57%
    17:00 +18°C° 0 mm 4 m/s 758 mmHg 60%
    18:00 +17°C° 0 mm 3 m/s 759 mmHg 65%
    19:00 +14°C° 0 mm 3 m/s 759 mmHg 71%
    20:00 +14°C° 0 mm 2 m/s 759 mmHg 76%
    21:00 +13°C° 0 mm 2 m/s 759 mmHg 78%
    22:00 +12°C° 0 mm 1 m/s 759 mmHg 80%
    23:00 +12°C° 0 mm 1 m/s 759 mmHg 82%

    24 Novembre, Dimanche

    Heure Température Précipitation Vent Pression Humidité
    00:00 +11°C° 0 mm 1 m/s 758 mmHg 84%
    01:00 +11°C° 0 mm 1 m/s 758 mmHg 86%
    02:00 +11°C° 0 mm 1 m/s 757 mmHg 88%
    03:00 +10°C° 0 mm 1 m/s 757 mmHg 88%
    04:00 +10°C° 0 mm 1 m/s 757 mmHg 88%
    05:00 +9°C° 0 mm 2 m/s 757 mmHg 89%
    06:00 +13°C° 0 mm 2 m/s 757 mmHg 79%
    07:00 +14°C° 0 mm 3 m/s 757 mmHg 69%
    08:00 +18°C° 0 mm 3 m/s 757 mmHg 59%
    09:00 +19°C° 0 mm 4 m/s 756 mmHg 58%
    10:00 +20°C° 0 mm 5 m/s 756 mmHg 57%
    11:00 +21°C° 0 mm 6 m/s 756 mmHg 56%
    12:00 +22°C° 0 mm 6 m/s 755 mmHg 57%
    13:00 +22°C° 0 mm 6 m/s 755 mmHg 59%
    14:00 +22°C° 0 mm 7 m/s 755 mmHg 60%
    15:00 +21°C° 0 mm 7 m/s 755 mmHg 65%
    16:00 +20°C° 0 mm 6 m/s 755 mmHg 71%
    17:00 +19°C° 0 mm 6 m/s 754 mmHg 76%
    18:00 +17°C° 0 mm 6 m/s 755 mmHg 78%
    19:00 +16°C° 0 mm 6 m/s 756 mmHg 80%
    20:00 +15°C° 0 mm 5 m/s 757 mmHg 82%
    21:00 +14°C° 0 mm 5 m/s 757 mmHg 83%
    22:00 +13°C° 0 mm 5 m/s 757 mmHg 83%
    23:00 +12°C° 0 mm 4 m/s 757 mmHg 84%

    25 Novembre, Lundi

    Heure Température Précipitation Vent Pression Humidité
    00:00 +12°C° 0 mm 4 m/s 757 mmHg 81%
    01:00 +13°C° 0 mm 4 m/s 757 mmHg 78%
    02:00 +13°C° 0 mm 4 m/s 757 mmHg 75%
    03:00 +13°C° 0 mm 4 m/s 757 mmHg 74%
    04:00 +13°C° 0 mm 3 m/s 758 mmHg 73%
    05:00 +13°C° 0 mm 3 m/s 758 mmHg 72%
    06:00 +13°C° 0 mm 3 m/s 758 mmHg 70%
    07:00 +14°C° 0 mm 4 m/s 759 mmHg 67%
    08:00 +14°C° 0 mm 4 m/s 759 mmHg 65%
    09:00 +15°C° 0 mm 4 m/s 759 mmHg 63%
    10:00 +15°C° 0 mm 4 m/s 759 mmHg 60%
    11:00 +17°C° 0 mm 4 m/s 759 mmHg 58%
    12:00 +17°C° 0 mm 4 m/s 759 mmHg 58%
    13:00 +18°C° 0 mm 4 m/s 759 mmHg 57%
    14:00 +18°C° 0 mm 4 m/s 759 mmHg 57%
    15:00 +17°C° 0 mm 4 m/s 759 mmHg 58%
    16:00 +17°C° 0 mm 4 m/s 759 mmHg 60%
    17:00 +17°C° 0 mm 4 m/s 759 mmHg 61%
    18:00 +14°C° 0 mm 4 m/s 759 mmHg 65%
    19:00 +13°C° 0 mm 4 m/s 760 mmHg 69%
    20:00 +12°C° 0 mm 3 m/s 760 mmHg 73%
    21:00 +12°C° 0 mm 3 m/s 760 mmHg 74%
    22:00 +11°C° 0 mm 3 m/s 760 mmHg 76%
    23:00 +10°C° 0 mm 2 m/s 761 mmHg 77%
    Voir plus